User: anonymous   Login
Location: Unspecified
(0.0000°N, 0.0000°E)
Time: 23:13:32
(UTC+00:00)
Language:

Meteor 1-24 - Orbit

View from above orbital plane
View from above orbital plane
View from above satellite
View from above satellite

Ground track
Ground track

The orbit data is extracted from the following two-line orbital elements,

1  8799U 76032A   18015.89545206 -.00000080 +00000-0 -50639-4 0  9992
2  8799 081.2575 344.1403 0033994 301.4892 058.2959 14.11460966150256
Epoch (UTC): 15 January 2018 21:29:27
Eccentricity: 0.0033994
inclination: 81.2575°
perigee height: 830 km
apogee height: 879 km
right ascension of ascending node: 344.1403°
argument of perigee: 301.4892°
revolutions per day: 14.11460966
mean anomaly at epoch: 58.2959°
orbit number at epoch: 15025

The dashed part of the orbit path shows where the satellite is in the earth's shadow,  

DLR